SCP
0 0 0 0 0 0 0 0 0 0 0 0 0 0 0 0 0 0 0 0 0 0 0 0 0 0 0 0 0 0 0 0 0 0 1 2 2 3 3 2 1 2 1 1
0 0 0 0 0 0 0 0 0 0 0 0 0 0 0 0 0 0 0 0 0 0 0 0 0 0 0 0 0 0 0 0 0 0 0 1 1 2 3 2 2 2 1 2
0 0 0 0 0 0 0 0 0 0 0 0 0 0 0 0 0 0 0 0 0 0 0 0 0 0 0 0 0 0 0 0 0 0 0 2 2 3 3 3 2 2 2 2
0 0 0 0 0 0 0 0 0 0 0 0 0 0 0 0 0 0 0 0 0 0 0 0 0 0 0 0 0 0 0 0 0 0 0 0 1 1 1 2 2 3 3 2
0 0 0 0 0 0 0 0 0 0 0 0 0 0 0 0 0 0 0 0 0 0 0 0 0 0 0 0 0 0 0 0 0 0 0 0 0 1 1 1 2 2 1 2
0 0 0 0 0 0 0 0 0 0 0 0 0 0 0 0 0 0 0 0 0 0 0 0 0 0 0 0 0 0 0 -0 0 0 0 0 0 1 1 1 1 1 1 1
0 0 0 0 0 0 0 0 0 0 0 0 0 0 0 0 0 0 0 0 0 0 0 0 0 0 0 0 -0 -0 -0 -0 -0 -0 0 0 0 0 1 1 1 2 2 1
0 0 0 0 0 0 0 0 0 0 0 0 0 0 0 0 0 0 0 0 0 0 0 0 0 0 0 0 -0 -0 -0 -0 -0 -0 -0 0 0 0 0 0 1 1 2 2
0 0 0 0 0 0 0 0 0 0 0 0 0 0 0 0 -0 0 0 0 0 0 0 0 0 0 -0 -0 -0 -0 -0 -0 -0 -0 -0 0 0 0 0 1 0 1 1 2
0 0 0 0 0 0 0 0 0 0 0 0 0 0 0 0 0 0 0 0 0 0 -0 0 0 0 0 -0 -0 -0 -0 -0 -0 -0 -0 0 0 0 0 0 1 0 1 1
0 0 0 0 0 0 0 0 0 0 0 0 0 0 0 0 0 0 0 0 0 0 0 0 0 0 -0 -0 -0 -0 -0 -0 -0 -0 0 0 0 0 0 1 1 0 1 2
0 0 0 0 0 0 0 0 0 0 0 0 0 0 0 0 0 0 0 0 0 0 0 0 0 -0 -0 -0 -0 -0 -0 -0 -0 -0 0 0 0 0 0 1 1 1 2 1
0 0 0 0 0 0 0 0 0 0 0 0 0 0 0 0 0 0 0 0 0 0 0 -0 -0 -0 -0 -0 -0 -0 0 0 0 0 0 0 0 0 0 1 1 1 1 2
0 0 0 0 0 0 0 0 0 0 0 0 0 0 0 0 0 0 0 0 0 0 0 0 -0 -0 -0 -0 -0 -0 -0 0 0 0 0 0 0 0 0 0 1 1 1 1
0 0 0 0 0 0 0 0 0 0 0 0 0 0 0 0 0 0 0 0 0 0 0 -0 -0 -0 -0 -0 -0 -0 0 0 0 0 0 0 0 0 0 0 1 1 0 0
0 0 0 0 0 0 0 0 0 0 0 0 0 0 0 0 0 0 0 0 -0 0 -0 -0 -0 -0 -0 -0 -0 -0 0 0 0 0 0 0 0 0 0 0 0 0 0 0
0 0 0 0 0 0 0 0 0 0 0 0 0 0 0 0 0 0 -0 0 -0 -0 -0 -0 -0 -0 -0 -0 -0 0 0 0 0 0 0 0 0 0 0 0 0 0 0 0
0 0 0 0 0 0 0 0 0 0 0 0 0 0 0 0 0 0 -0 0 -0 -0 -0 -0 -0 -0 -0 0 0 0 0 0 0 0 0 0 0 0 0 0 0 0 0 0
0 0 0 0 0 0 0 0 0 0 0 0 0 0 0 0 -0 0 0 0 -0 -0 -0 -0 -0 0 0 0 0 0 0 0 0 0 0 0 0 0 0 0 0 0 0 0
0 0 0 0 0 0 0 0 0 0 0 0 0 -0 -0 0 -0 0 -0 -0 -0 0 0 0 0 0 0 0 0 0 0 0 0 0 0 0 0 0 0 0 0 0 0 0
0 0 0 0 0 0 0 0 0 0 0 -0 -0 -0 -0 -0 -0 0 -0 -0 -0 0 0 0 0 0 0 0 0 0 0 0 0 0 0 0 0 0 0 0 0 0 0 0
0 0 0 0 0 0 0 0 0 0 0 0 0 -0 -0 -0 -0 -0 -0 -0 -0 0 0 0 0 0 0 0 0 0 0 0 0 0 0 0 0 0 0 0 0 0 0 0
0 0 0 0 0 0 0 0 0 0 0 0 0 -0 -0 -0 -0 -0 0 0 0 0 0 0 -0 -0 0 0 0 0 0 0 0 0 0 0 0 0 0 0 0 0 0 0
0 0 0 0 0 0 0 0 0 0 0 0 0 -0 -0 0 0 0 0 0 0 0 -0 -0 -0 -0 0 0 0 0 0 0 0 0 0 0 0 0 0 0 0 0 0 0
0 0 0 0 0 -0 0 0 0 0 0 0 -0 0 0 0 0 0 0 0 -0 -0 -0 -0 0 0 0 0 0 0 0 0 0 0 0 0 0 0 0 0 0 0 0 0
0 0 0 -0 -0 0 0 0 0 0 -0 -0 0 0 0 0 0 0 0 -0 -0 -0 -0 0 0 0 0 0 0 0 0 0 0 0 0 0 0 0 0 0 0 0 0 0
Wind_Speed_500mb
6 4 4 1 6 6 10 9 16 17 12 20 31 35 38 51 44 41 27 11 5 5 13 19 20 26 33 35 35 39 27 30 47 54 64 67 64 70 65 67 60 62 50 47
4 12 7 8 8 10 11 11 19 15 14 23 35 46 37 32 28 16 12 8 6 3 6 12 20 25 32 39 47 54 55 50 26 40 51 53 52 63 68 70 72 70 63 57
12 11 4 7 7 10 8 12 7 16 26 25 24 31 4 3 13 10 7 5 5 2 9 17 23 26 31 39 44 48 58 62 55 39 37 49 51 61 73 79 75 69 73 59
10 5 4 5 5 5 13 7 12 22 26 24 8 18 6 7 13 13 8 9 7 4 6 13 24 35 39 43 48 46 45 59 62 53 42 29 40 47 58 75 78 79 71 62
5 8 9 7 3 7 8 10 19 23 25 11 10 11 1 6 17 13 14 12 11 8 9 17 24 31 36 40 48 58 62 59 60 60 47 39 28 42 46 49 65 76 79 69
4 8 2 3 4 2 6 11 22 2 4 9 8 4 9 9 8 10 8 12 14 15 14 16 22 32 39 44 52 59 66 77 75 64 54 41 36 32 42 54 59 67 74 81
16 4 0 1 7 5 5 16 9 6 5 10 11 15 21 25 24 28 26 24 19 21 19 23 28 37 47 55 60 68 78 81 85 75 63 46 40 36 34 46 55 53 68 75
6 8 6 1 22 17 6 4 5 12 10 27 23 18 7 9 10 10 12 12 21 27 25 27 30 39 49 59 63 76 83 91 90 86 70 53 40 42 40 37 48 63 63 68
8 10 10 28 10 6 8 10 3 9 8 11 10 12 20 29 24 17 24 21 20 22 30 34 37 43 52 54 66 77 82 84 83 80 72 56 43 37 41 40 42 52 69 67
3 19 13 6 5 6 13 13 6 4 9 13 19 26 23 19 18 20 29 36 14 32 25 28 38 44 53 57 70 75 72 73 72 66 66 56 45 37 39 40 42 46 59 60
6 6 7 6 13 25 10 9 7 8 9 11 22 18 7 21 26 27 32 22 36 31 26 36 46 53 58 58 59 60 61 61 59 54 55 48 42 36 40 41 37 43 45 49
0 6 19 36 43 20 20 28 27 13 16 14 24 36 25 27 19 24 36 47 32 29 36 44 53 59 58 58 59 55 54 53 49 50 52 45 39 35 37 36 34 41 45 55
4 5 12 15 6 6 7 8 24 21 12 35 31 26 7 19 36 46 30 31 36 46 57 58 63 62 59 56 54 53 50 51 47 47 49 44 39 34 29 33 30 34 43 44
13 14 22 22 37 36 43 42 41 29 13 34 41 55 49 43 42 39 29 34 45 57 59 66 63 67 62 58 55 54 56 54 47 44 46 42 37 30 22 28 30 37 37 39
5 16 23 33 43 44 45 48 48 39 47 32 51 49 48 42 22 31 34 44 58 61 66 61 63 66 62 63 62 63 59 50 44 46 44 41 34 27 18 23 30 34 43 48
7 18 28 40 32 28 29 38 41 41 40 32 37 45 15 24 30 46 49 61 71 70 65 65 68 66 68 66 63 67 59 50 44 44 43 38 34 24 16 17 31 32 44 45
15 9 8 25 19 34 28 11 16 27 22 17 15 34 26 29 43 50 64 72 66 65 66 76 75 69 74 73 74 68 56 51 46 44 39 35 32 23 18 16 22 30 37 36
7 5 4 16 26 23 13 32 21 17 22 29 40 30 22 48 54 58 63 54 61 77 80 74 71 75 73 75 77 62 53 48 46 44 39 32 28 24 19 16 19 23 31 37
10 3 9 9 20 37 21 3 4 6 37 32 5 25 62 53 59 54 47 59 81 75 73 73 81 76 79 71 65 57 49 44 43 43 34 27 26 24 19 17 20 19 29 39
5 11 10 11 9 16 15 2 26 40 31 10 41 48 57 44 33 41 82 86 76 71 75 76 78 80 71 67 59 51 46 40 42 38 28 24 25 23 17 19 20 20 23 35
21 14 14 14 13 20 14 6 53 15 12 62 69 57 60 31 47 99 95 83 75 77 75 72 71 76 72 64 50 47 43 40 37 35 27 20 27 24 15 25 20 24 32 34
12 9 7 8 10 12 5 39 4 24 66 65 61 62 61 72 84 82 86 88 85 89 86 78 76 68 64 53 42 43 40 29 27 26 25 20 28 25 23 28 22 28 35 32
8 12 9 10 15 51 63 43 63 56 63 62 53 69 78 77 80 83 83 76 82 80 78 78 67 65 54 42 36 42 35 29 28 31 31 25 29 28 27 28 25 34 30 31
8 12 9 16 17 33 54 61 55 68 66 61 67 73 69 75 79 80 79 77 77 78 77 72 66 60 54 41 35 36 34 32 36 42 43 35 36 30 32 26 26 40 43 47
21 13 14 24 43 48 36 56 66 71 61 67 66 65 74 67 79 74 77 77 79 80 76 70 65 61 55 40 33 28 31 32 35 42 36 40 39 40 39 34 41 45 49 40
9 8 5 7 43 38 54 69 63 59 64 67 69 75 71 73 74 72 73 74 74 78 77 70 63 57 47 34 25 23 27 31 31 35 44 53 51 46 40 45 52 50 52 49
Wind_Direction_500mb
30 316 359 289 203 211 226 237 271 295 303 320 301 297 296 296 289 283 287 245 359 333 20 37 37 30 26 24 22 19 352 286 261 262 254 248 244 236 241 248 249 251 251 251
236 286 212 185 210 231 231 275 301 288 297 313 305 297 302 288 273 290 282 225 308 335 9 33 32 24 22 19 19 23 23 18 345 258 253 244 248 236 234 243 243 247 247 249
250 287 147 239 238 246 250 269 260 297 317 287 288 289 258 272 267 238 218 219 212 299 351 353 1 11 10 8 9 9 13 16 14 358 259 244 245 246 235 238 246 248 249 249
258 342 286 293 255 212 282 198 286 288 312 307 356 298 261 265 264 276 218 211 226 241 337 356 357 351 355 353 353 354 354 358 4 6 0 271 251 246 245 239 246 249 251 246
301 341 330 296 103 199 306 311 294 293 287 278 202 253 129 285 268 284 236 252 241 246 295 323 335 337 342 346 344 345 347 341 342 350 354 349 297 259 253 247 249 249 245 241
295 297 266 101 71 100 328 301 291 170 238 246 141 246 266 249 261 265 239 241 257 248 270 298 313 325 328 332 330 331 335 339 334 328 334 334 328 321 259 249 247 248 250 244
322 21 23 98 340 298 317 329 316 282 245 292 163 287 271 281 269 268 277 276 269 262 271 292 314 323 324 326 327 329 326 323 331 323 316 318 318 308 305 263 247 242 245 249
332 304 343 170 329 295 290 259 264 291 292 297 273 250 241 242 272 283 257 260 275 263 275 291 307 315 321 326 328 327 320 318 319 319 310 301 299 305 297 288 255 246 239 243
299 249 293 296 303 219 155 220 349 271 267 268 240 256 271 272 260 248 243 299 285 288 279 286 302 314 321 322 324 323 320 316 314 311 307 293 285 287 287 288 269 249 244 239
307 297 271 284 255 204 246 152 212 213 270 261 268 268 270 282 261 290 299 309 301 323 304 296 309 314 319 319 321 318 317 315 311 307 304 288 278 275 279 276 270 255 248 237
287 222 274 279 244 277 230 219 210 275 232 264 290 273 224 287 295 296 308 314 321 320 316 313 317 319 320 318 319 317 315 312 309 306 301 285 271 266 272 271 253 248 235 222
20 242 275 273 276 292 259 262 251 236 238 233 275 276 290 281 286 322 308 308 315 315 314 316 318 319 317 315 315 312 310 310 306 305 304 284 274 266 262 262 252 230 212 211
184 254 303 286 189 141 227 223 239 251 274 259 266 269 251 271 296 318 323 316 317 317 318 318 318 319 317 313 311 307 307 306 303 302 301 281 276 278 265 251 231 224 219 220
251 236 232 264 288 295 288 279 266 253 258 268 261 276 288 295 301 319 314 317 315 314 314 315 315 315 313 311 311 307 304 304 301 297 296 279 274 282 274 244 227 210 211 225
255 264 272 277 282 284 280 280 282 266 262 259 278 287 292 308 322 320 317 314 312 306 309 309 310 310 307 304 305 304 302 299 297 295 293 279 268 274 275 241 225 222 220 226
336 284 300 296 285 286 287 279 276 281 280 269 274 284 321 316 311 317 320 318 310 308 308 308 308 305 303 302 303 306 301 297 296 293 290 282 269 265 260 234 219 222 225 230
274 288 295 290 312 306 285 329 322 306 300 310 285 302 320 318 319 319 318 311 307 308 306 306 304 302 302 301 303 301 295 296 291 291 288 283 268 259 245 235 232 228 226 226
243 237 264 295 312 291 1 316 309 309 289 299 292 306 320 310 298 309 309 303 307 307 303 300 299 300 299 300 301 298 294 290 287 287 285 280 263 254 240 233 252 231 217 215
198 19 309 279 305 291 288 45 13 321 303 300 348 326 316 302 298 300 310 309 307 303 300 299 301 297 297 295 297 297 298 290 284 283 279 277 253 248 239 236 253 237 221 203
229 271 262 288 275 297 322 161 342 321 294 80 327 317 308 314 305 306 317 314 306 305 302 302 300 299 295 293 295 295 292 287 282 278 275 273 241 238 225 242 252 223 211 204
312 311 276 263 276 276 323 276 334 285 330 322 311 309 307 302 298 302 309 310 308 306 304 303 300 297 295 295 294 289 287 282 281 280 266 268 233 228 216 239 243 220 204 188
293 298 274 265 260 277 14 328 290 297 301 301 299 301 310 305 304 305 308 309 310 311 314 311 306 300 296 295 290 284 280 274 273 262 245 257 235 217 221 230 224 209 195 193
262 233 287 230 269 295 304 305 303 305 298 300 310 316 313 308 307 306 306 307 308 309 308 311 309 308 303 295 286 279 268 264 247 239 242 249 223 212 222 219 214 187 180 175
270 266 238 276 271 290 310 308 311 310 311 314 316 312 308 304 308 306 308 309 309 311 314 317 314 308 303 297 288 273 265 250 238 228 235 233 207 202 208 210 204 192 174 151
286 280 253 268 290 312 303 310 313 319 316 316 313 313 313 304 311 311 310 311 314 317 320 320 313 309 304 298 277 261 242 234 228 224 210 195 188 197 191 191 184 185 174 156
250 288 278 287 304 300 304 317 324 320 319 321 317 316 317 316 316 317 314 318 321 320 321 318 318 312 305 295 263 236 228 209 194 179 168 175 185 187 185 180 172 175 176 183
Wind_Speed_850mb
6 4 4 1 6 6 10 9 16 17 12 20 31 35 38 51 44 41 27 11 5 5 13 19 20 26 33 35 35 39 27 30 47 54 64 67 64 70 65 67 60 62 50 47
4 12 7 8 8 10 11 11 19 15 14 23 35 46 37 32 28 16 12 8 6 3 6 12 20 25 32 39 47 54 55 50 26 40 51 53 52 63 68 70 72 70 63 57
12 11 4 7 7 10 8 12 7 16 26 25 24 31 4 3 13 10 7 5 5 2 9 17 23 26 31 39 44 48 58 62 55 39 37 49 51 61 73 79 75 69 73 59
10 5 4 5 5 5 13 7 12 22 26 24 8 18 6 7 13 13 8 9 7 4 6 13 24 35 39 43 48 46 45 59 62 53 42 29 40 47 58 75 78 79 71 62
5 8 9 7 3 7 8 10 19 23 25 11 10 11 1 6 17 13 14 12 11 8 9 17 24 31 36 40 48 58 62 59 60 60 47 39 28 42 46 49 65 76 79 69
4 8 2 3 4 2 6 11 22 2 4 9 8 4 9 9 8 10 8 12 14 15 14 16 22 32 39 44 52 59 66 77 75 64 54 41 36 32 42 54 59 67 74 81
16 4 0 1 7 5 5 16 9 6 5 10 11 15 21 25 24 28 26 24 19 21 19 23 28 37 47 55 60 68 78 81 85 75 63 46 40 36 34 46 55 53 68 75
6 8 6 1 22 17 6 4 5 12 10 27 23 18 7 9 10 10 12 12 21 27 25 27 30 39 49 59 63 76 83 91 90 86 70 53 40 42 40 37 48 63 63 68
8 10 10 28 10 6 8 10 3 9 8 11 10 12 20 29 24 17 24 21 20 22 30 34 37 43 52 54 66 77 82 84 83 80 72 56 43 37 41 40 42 52 69 67
3 19 13 6 5 6 13 13 6 4 9 13 19 26 23 19 18 20 29 36 14 32 25 28 38 44 53 57 70 75 72 73 72 66 66 56 45 37 39 40 42 46 59 60
6 6 7 6 13 25 10 9 7 8 9 11 22 18 7 21 26 27 32 22 36 31 26 36 46 53 58 58 59 60 61 61 59 54 55 48 42 36 40 41 37 43 45 49
0 6 19 36 43 20 20 28 27 13 16 14 24 36 25 27 19 24 36 47 32 29 36 44 53 59 58 58 59 55 54 53 49 50 52 45 39 35 37 36 34 41 45 55
4 5 12 15 6 6 7 8 24 21 12 35 31 26 7 19 36 46 30 31 36 46 57 58 63 62 59 56 54 53 50 51 47 47 49 44 39 34 29 33 30 34 43 44
13 14 22 22 37 36 43 42 41 29 13 34 41 55 49 43 42 39 29 34 45 57 59 66 63 67 62 58 55 54 56 54 47 44 46 42 37 30 22 28 30 37 37 39
5 16 23 33 43 44 45 48 48 39 47 32 51 49 48 42 22 31 34 44 58 61 66 61 63 66 62 63 62 63 59 50 44 46 44 41 34 27 18 23 30 34 43 48
7 18 28 40 32 28 29 38 41 41 40 32 37 45 15 24 30 46 49 61 71 70 65 65 68 66 68 66 63 67 59 50 44 44 43 38 34 24 16 17 31 32 44 45
15 9 8 25 19 34 28 11 16 27 22 17 15 34 26 29 43 50 64 72 66 65 66 76 75 69 74 73 74 68 56 51 46 44 39 35 32 23 18 16 22 30 37 36
7 5 4 16 26 23 13 32 21 17 22 29 40 30 22 48 54 58 63 54 61 77 80 74 71 75 73 75 77 62 53 48 46 44 39 32 28 24 19 16 19 23 31 37
10 3 9 9 20 37 21 3 4 6 37 32 5 25 62 53 59 54 47 59 81 75 73 73 81 76 79 71 65 57 49 44 43 43 34 27 26 24 19 17 20 19 29 39
5 11 10 11 9 16 15 2 26 40 31 10 41 48 57 44 33 41 82 86 76 71 75 76 78 80 71 67 59 51 46 40 42 38 28 24 25 23 17 19 20 20 23 35
21 14 14 14 13 20 14 6 53 15 12 62 69 57 60 31 47 99 95 83 75 77 75 72 71 76 72 64 50 47 43 40 37 35 27 20 27 24 15 25 20 24 32 34
12 9 7 8 10 12 5 39 4 24 66 65 61 62 61 72 84 82 86 88 85 89 86 78 76 68 64 53 42 43 40 29 27 26 25 20 28 25 23 28 22 28 35 32
8 12 9 10 15 51 63 43 63 56 63 62 53 69 78 77 80 83 83 76 82 80 78 78 67 65 54 42 36 42 35 29 28 31 31 25 29 28 27 28 25 34 30 31
8 12 9 16 17 33 54 61 55 68 66 61 67 73 69 75 79 80 79 77 77 78 77 72 66 60 54 41 35 36 34 32 36 42 43 35 36 30 32 26 26 40 43 47
21 13 14 24 43 48 36 56 66 71 61 67 66 65 74 67 79 74 77 77 79 80 76 70 65 61 55 40 33 28 31 32 35 42 36 40 39 40 39 34 41 45 49 40
9 8 5 7 43 38 54 69 63 59 64 67 69 75 71 73 74 72 73 74 74 78 77 70 63 57 47 34 25 23 27 31 31 35 44 53 51 46 40 45 52 50 52 49
Wind_Direction_850mb
30 316 359 289 203 211 226 237 271 295 303 320 301 297 296 296 289 283 287 245 359 333 20 37 37 30 26 24 22 19 352 286 261 262 254 248 244 236 241 248 249 251 251 251
236 286 212 185 210 231 231 275 301 288 297 313 305 297 302 288 273 290 282 225 308 335 9 33 32 24 22 19 19 23 23 18 345 258 253 244 248 236 234 243 243 247 247 249
250 287 147 239 238 246 250 269 260 297 317 287 288 289 258 272 267 238 218 219 212 299 351 353 1 11 10 8 9 9 13 16 14 358 259 244 245 246 235 238 246 248 249 249
258 342 286 293 255 212 282 198 286 288 312 307 356 298 261 265 264 276 218 211 226 241 337 356 357 351 355 353 353 354 354 358 4 6 0 271 251 246 245 239 246 249 251 246
301 341 330 296 103 199 306 311 294 293 287 278 202 253 129 285 268 284 236 252 241 246 295 323 335 337 342 346 344 345 347 341 342 350 354 349 297 259 253 247 249 249 245 241
295 297 266 101 71 100 328 301 291 170 238 246 141 246 266 249 261 265 239 241 257 248 270 298 313 325 328 332 330 331 335 339 334 328 334 334 328 321 259 249 247 248 250 244
322 21 23 98 340 298 317 329 316 282 245 292 163 287 271 281 269 268 277 276 269 262 271 292 314 323 324 326 327 329 326 323 331 323 316 318 318 308 305 263 247 242 245 249
332 304 343 170 329 295 290 259 264 291 292 297 273 250 241 242 272 283 257 260 275 263 275 291 307 315 321 326 328 327 320 318 319 319 310 301 299 305 297 288 255 246 239 243
299 249 293 296 303 219 155 220 349 271 267 268 240 256 271 272 260 248 243 299 285 288 279 286 302 314 321 322 324 323 320 316 314 311 307 293 285 287 287 288 269 249 244 239
307 297 271 284 255 204 246 152 212 213 270 261 268 268 270 282 261 290 299 309 301 323 304 296 309 314 319 319 321 318 317 315 311 307 304 288 278 275 279 276 270 255 248 237
287 222 274 279 244 277 230 219 210 275 232 264 290 273 224 287 295 296 308 314 321 320 316 313 317 319 320 318 319 317 315 312 309 306 301 285 271 266 272 271 253 248 235 222
20 242 275 273 276 292 259 262 251 236 238 233 275 276 290 281 286 322 308 308 315 315 314 316 318 319 317 315 315 312 310 310 306 305 304 284 274 266 262 262 252 230 212 211
184 254 303 286 189 141 227 223 239 251 274 259 266 269 251 271 296 318 323 316 317 317 318 318 318 319 317 313 311 307 307 306 303 302 301 281 276 278 265 251 231 224 219 220
251 236 232 264 288 295 288 279 266 253 258 268 261 276 288 295 301 319 314 317 315 314 314 315 315 315 313 311 311 307 304 304 301 297 296 279 274 282 274 244 227 210 211 225
255 264 272 277 282 284 280 280 282 266 262 259 278 287 292 308 322 320 317 314 312 306 309 309 310 310 307 304 305 304 302 299 297 295 293 279 268 274 275 241 225 222 220 226
336 284 300 296 285 286 287 279 276 281 280 269 274 284 321 316 311 317 320 318 310 308 308 308 308 305 303 302 303 306 301 297 296 293 290 282 269 265 260 234 219 222 225 230
274 288 295 290 312 306 285 329 322 306 300 310 285 302 320 318 319 319 318 311 307 308 306 306 304 302 302 301 303 301 295 296 291 291 288 283 268 259 245 235 232 228 226 226
243 237 264 295 312 291 1 316 309 309 289 299 292 306 320 310 298 309 309 303 307 307 303 300 299 300 299 300 301 298 294 290 287 287 285 280 263 254 240 233 252 231 217 215
198 19 309 279 305 291 288 45 13 321 303 300 348 326 316 302 298 300 310 309 307 303 300 299 301 297 297 295 297 297 298 290 284 283 279 277 253 248 239 236 253 237 221 203
229 271 262 288 275 297 322 161 342 321 294 80 327 317 308 314 305 306 317 314 306 305 302 302 300 299 295 293 295 295 292 287 282 278 275 273 241 238 225 242 252 223 211 204
312 311 276 263 276 276 323 276 334 285 330 322 311 309 307 302 298 302 309 310 308 306 304 303 300 297 295 295 294 289 287 282 281 280 266 268 233 228 216 239 243 220 204 188
293 298 274 265 260 277 14 328 290 297 301 301 299 301 310 305 304 305 308 309 310 311 314 311 306 300 296 295 290 284 280 274 273 262 245 257 235 217 221 230 224 209 195 193
262 233 287 230 269 295 304 305 303 305 298 300 310 316 313 308 307 306 306 307 308 309 308 311 309 308 303 295 286 279 268 264 247 239 242 249 223 212 222 219 214 187 180 175
270 266 238 276 271 290 310 308 311 310 311 314 316 312 308 304 308 306 308 309 309 311 314 317 314 308 303 297 288 273 265 250 238 228 235 233 207 202 208 210 204 192 174 151
286 280 253 268 290 312 303 310 313 319 316 316 313 313 313 304 311 311 310 311 314 317 320 320 313 309 304 298 277 261 242 234 228 224 210 195 188 197 191 191 184 185 174 156
250 288 278 287 304 300 304 317 324 320 319 321 317 316 317 316 316 317 314 318 321 320 321 318 318 312 305 295 263 236 228 209 194 179 168 175 185 187 185 180 172 175 176 183